TIRSTRUP_(CIV/MIL) current weather conditions

sailwx.info

Wind from 150 at 5 knots

Air temperature 4.0° C
Visibility: greater than 5.4 NM
Dewpoint 1.0° C

Last reported at 2019-Dec-13 22:50 UTC.
Time now 2019-Dec-14 00:24 UTC

Location: N 56°18' E 010°37'.
View on Google Maps.

See reports from other nearby stations

  
Tides and Currents Weather Stations Pressure Air Temp Water Temp Dewpoint Dewpoint Depression Visibility Wind Speed Wind Dir Waves Ship Positions
date/time (UTC)wind fromknots sea level pressurealtimeterstation pressurevisibilityair tempwater tempwave heightnotes
2019-Dec-13 23:50 150 6 5.4 4.0
2019-Dec-13 23:20 140 6 5.4 4.0
2019-Dec-13 22:50 150 5 5.4 4.0
2019-Dec-13 22:20 150 5 5.4 5.0
2019-Dec-13 21:50 140 6 5.4 5.0
2019-Dec-13 21:20 140 6 5.4 5.0
2019-Dec-13 20:50 140 6 5.4 4.0
2019-Dec-13 20:20 130 6 5.4 5.0
2019-Dec-13 19:50 140 4 5.4 5.0
2019-Dec-13 19:20 130 6 5.4 5.0
2019-Dec-13 18:50 120 7 5.4 5.0
2019-Dec-13 18:20 120 6 5.4 5.0
2019-Dec-13 17:50 120 9 5.4 5.0
2019-Dec-13 17:20 120 8 5.4 5.0
2019-Dec-13 16:50 110 9 5.4 5.0
2019-Dec-13 16:20 110 11 5.4 5.0
2019-Dec-13 15:50 110 12 5.4 5.0
2019-Dec-13 15:20 110 11 5.4 5.0
2019-Dec-13 14:50 110 11 5.4 5.0
2019-Dec-13 14:20 120 11 gusting 21 5.4 5.0
2019-Dec-13 13:50 120 12 5.4 5.0
2019-Dec-13 13:20 120 12 gusting 21 5.4 5.0
2019-Dec-13 12:50 120 11 gusting 20 5.4 5.0
2019-Dec-13 12:20 120 11 5.4 5.0
2019-Dec-13 11:50 120 13 5.4 5.0
2019-Dec-13 11:20 130 12 gusting 21 5.4 5.0
2019-Dec-13 10:50 130 11 gusting 20 5.4 5.0
2019-Dec-13 10:20 120 11 5.4 5.0
2019-Dec-13 09:50 130 13 gusting 22 5.4 5.0
2019-Dec-13 09:20 130 12 gusting 21 5.4 4.0
2019-Dec-13 08:50 130 11 gusting 20 5.4 4.0
2019-Dec-13 08:20 120 11 gusting 20 5.4 4.0
2019-Dec-13 07:50 130 11 5.4 4.0
2019-Dec-13 07:20 140 9 gusting 20 5.4 4.0
2019-Dec-13 06:50 140 11 5.4 5.0
2019-Dec-13 06:20 130 8 5.4 5.0
2019-Dec-13 05:50 130 9 gusting 20 5.4 5.0
2019-Dec-13 05:20 130 12 gusting 25 5.4 5.0
2019-Dec-13 04:50 130 11 5.4 5.0
2019-Dec-13 04:20 130 9 5.4 5.0
2019-Dec-13 03:50 130 8 5.4 5.0
2019-Dec-13 03:20 130 11 gusting 20 5.4 5.0
2019-Dec-13 02:50 140 8 5.4 5.0
2019-Dec-13 02:20 140 8 5.4 5.0
2019-Dec-13 01:50 140 11 5.4 5.0
2019-Dec-13 01:20 140 6 gusting 15 5.4 5.0
2019-Dec-13 00:50 160 6 5.4 4.0
2019-Dec-13 00:20 160 6 5.4 4.0
2019-Dec-12 23:50 160 6 5.4 4.0
2019-Dec-12 23:20 170 6 5.4 4.0
2019-Dec-12 22:50 160 5 5.4 4.0
2019-Dec-12 22:20 170 5 5.4 4.0
2019-Dec-12 21:50 190 2 5.4 4.0
2019-Dec-12 21:20 200 2 5.4 4.0
2019-Dec-12 20:50 190 4 5.4 4.0
2019-Dec-12 20:20 190 4 5.4 4.0
2019-Dec-12 19:50 200 2 5.4 4.0
2019-Dec-12 19:20 210 4 5.4 4.0
2019-Dec-12 18:50 200 5 5.4 4.0
2019-Dec-12 18:20 210 4 5.4 5.0
2019-Dec-12 17:50 200 5 5.4 5.0
2019-Dec-12 17:20 200 5 5.4 5.0
2019-Dec-12 16:50 200 4 5.4 5.0
2019-Dec-12 16:20 210 4 5.4 5.0
2019-Dec-12 15:50 210 5 5.4 6.0
2019-Dec-12 15:20 200 4 5.4 6.0 Light rain showers.
2019-Dec-12 14:50 200 4 5.4 6.0
2019-Dec-12 14:20 200 6 4.9 6.0
2019-Dec-12 13:50 200 5 4.3 6.0
2019-Dec-12 13:20 4.3 6.0 Light rain showers.
2019-Dec-12 12:50 200 6 5.4 6.0
2019-Dec-12 12:20 180 6 gusting 17 4.9 5.0 Light rain showers.
2019-Dec-12 11:50 5.4 6.0
2019-Dec-12 11:20 190 5 5.4 6.0
2019-Dec-12 10:50 190 6 5.4 6.0
2019-Dec-12 10:20 5.4 5.0
2019-Dec-12 09:50 210 5 4.9 5.0
2019-Dec-12 09:20 210 2 3.8 4.0
2019-Dec-12 08:50 180 0 3.8 4.0
2019-Dec-12 08:20 200 0 3.2 3.0
2019-Dec-12 07:50 3.2 4.0
2019-Dec-12 07:20 210 0 2.5 4.0 Mist.
2019-Dec-12 06:50 240 1 2.7 2.0
2019-Dec-12 06:20 210 0 3.2 2.0
2019-Dec-12 05:50 210 0 3.2 1.0
2019-Dec-12 05:20 210 0 2.2 1.0 Mist.
2019-Dec-12 04:50 200 0 2.3 1.0 Mist.
2019-Dec-12 04:20 150 1 2.7 1.0
2019-Dec-12 03:50 150 0 2.0 2.0 Mist.
2019-Dec-12 03:20 170 1 3.8 2.0
2019-Dec-12 02:50 180 1 3.2 2.0
2019-Dec-12 02:20 190 1 2.7 2.0
2019-Dec-12 01:50 160 1 3.2 2.0
2019-Dec-12 01:20 160 1 3.2 3.0
2019-Dec-12 00:50 230 1 3.8 2.0
2019-Dec-12 00:20 210 0 1.3 3.0 Mist.